Location: Pl�tzky
(52.0521°N, 11.8020°E)
Time: 17:53:10
(UTC+00:00)

N. Korean satellite - Visible Passes

Search period start: 27 January 2021 00:00
Search period end: 06 February 2021 00:00
Orbit: 452 x 502 km, 97.2° (Epoch: 27 January)

Date Brightness Start Highest point End Pass type
(mag) Time Alt. Az. Time Alt. Az. Time Alt. Az.
27 Jan 9.3 03:51:36 10° NE 03:54:00 17° E 03:56:23 10° SE visible
27 Jan 6.8 05:24:15 10° N 05:27:32 40° WNW 05:30:46 10° SW visible
28 Jan 6.3 04:57:31 10° NNE 05:00:59 83° WNW 05:04:24 10° SSW visible
29 Jan 7.4 04:30:59 10° NNE 04:34:21 47° E 04:37:39 10° S visible
29 Jan 8.0 06:05:05 10° NNW 06:07:21 17° WNW 06:09:36 10° WSW visible
29 Jan 9.7 16:45:20 10° SW 16:47:55 18° W 16:50:29 10° NW visible
30 Jan 8.8 04:04:44 10° NE 04:07:36 24° E 04:10:25 10° SSE visible
30 Jan 7.3 05:37:54 10° N 05:40:56 29° WNW 05:43:56 10° SW visible
31 Jan 9.8 03:39:06 10° ENE 03:40:45 13° E 03:42:22 10° ESE visible
31 Jan 6.4 05:11:03 10° N 05:14:26 57° WNW 05:17:47 10° SSW visible
01 Feb 6.7 04:44:23 10° NNE 04:47:50 69° ESE 04:51:14 10° S visible
01 Feb 9.9 16:59:43 10° WSW 17:01:31 13° W 17:03:18 10° WNW visible
02 Feb 8.2 04:17:57 10° NNE 04:21:07 33° E 04:24:14 10° SSE visible
02 Feb 7.7 05:51:36 10° NNW 05:54:18 22° WNW 05:56:57 10° WSW visible
03 Feb 9.3 03:51:54 10° NE 03:54:18 18° E 03:56:40 10° SE visible
03 Feb 6.8 05:24:34 10° N 05:27:49 39° WNW 05:31:01 10° SW visible
04 Feb 6.3 04:57:48 10° NNE 05:01:15 82° WNW 05:04:39 10° SSW visible
05 Feb 7.4 04:31:14 10° NNE 04:34:35 47° E 04:37:52 10° S visible
05 Feb 8.0 06:05:22 10° NNW 06:07:35 16° WNW 06:09:46 10° WSW visible
05 Feb 9.7 16:45:42 10° SW 16:48:11 18° W 16:50:38 10° NW visible
